Theta_e
321 320 318 317 318 317 317 316 316 316 316 316 315 315 315 315 315 316 316 316 315 315 315 315 315 314 313 307 307 315 318 324 322 318 309 306 303 302 300 303 305 302 303 305 306 307 309
320 318 317 317 317 316 315 315 316 316 316 316 316 316 316 315 315 315 315 315 315 315 314 314 315 315 310 301 315 315 321 322 320 316 310 308 305 305 301 302 303 305 304 305 306 306 307
317 317 317 316 316 316 315 315 315 315 315 315 315 316 315 315 314 314 315 314 314 314 314 315 315 313 306 307 315 321 322 321 320 316 310 308 308 304 303 300 305 304 300 303 304 305 305
317 316 316 316 315 315 315 314 315 314 314 315 314 315 314 314 314 314 314 314 314 314 315 317 316 312 303 316 318 315 315 316 319 318 312 309 308 305 304 306 303 299 300 296 302 303 305
317 316 316 315 315 315 315 314 314 314 314 314 314 314 314 313 313 314 314 313 313 315 315 315 312 308 304 315 309 313 315 313 315 313 309 308 307 303 304 300 298 299 294 295 298 304 303
315 315 316 316 315 314 314 314 314 314 314 314 313 313 312 312 313 313 313 313 313 314 314 314 310 301 307 306 312 314 316 314 307 306 302 302 302 300 299 298 291 294 294 296 296 301 302
316 316 316 316 316 315 314 314 313 314 314 313 313 312 311 312 313 312 311 309 306 304 306 306 306 306 308 314 316 312 314 309 305 303 297 301 297 295 298 299 300 299 298 296 299 302 301
316 316 316 316 316 315 314 313 313 313 313 313 312 312 311 311 312 312 310 304 310 311 303 310 310 308 311 313 308 310 312 302 300 296 300 298 294 300 301 300 299 299 297 297 300 302 302
315 315 315 315 314 314 313 313 313 312 311 311 311 311 311 312 311 310 307 309 316 315 305 307 311 309 309 311 307 307 307 305 299 296 297 296 298 301 299 298 297 298 297 297 297 301 302
311 311 311 312 313 313 313 312 311 311 310 310 310 310 311 311 308 310 305 310 316 315 299 300 303 308 310 311 305 313 310 306 302 296 297 297 301 299 297 297 299 296 301 300 298 297 293
311 311 312 311 312 312 312 311 310 309 309 309 310 310 310 310 306 303 308 315 316 313 285 303 305 315 311 307 308 309 312 307 301 300 298 295 299 299 296 299 302 299 302 300 299 298 297
310 310 311 312 311 311 310 309 308 308 308 309 310 310 310 307 308 309 312 312 312 296 285 298 307 304 304 305 307 310 307 309 308 302 302 301 304 302 302 303 303 304 301 301 300 298 291
309 309 310 312 311 310 309 308 308 309 308 309 309 309 308 309 304 312 312 307 295 288 299 296 300 304 303 301 303 304 302 300 298 294 295 298 298 303 304 300 303 302 299 291 289 290 289
307 308 309 310 310 310 309 308 308 308 308 308 308 306 311 311 313 312 310 299 287 293 295 302 301 301 298 302 301 302 300 297 301 300 296 293 290 298 303 301 299 300 300 293 285 287 290
306 306 307 307 309 309 309 308 307 307 307 306 305 310 309 313 313 312 303 290 290 294 298 298 301 298 297 298 298 301 300 298 300 301 295 294 293 301 302 304 303 300 297 302 295 296 291
305 305 305 306 307 308 308 308 308 307 306 306 305 306 306 315 313 307 297 291 295 299 300 302 295 298 293 294 294 298 299 302 301 303 305 300 293 299 300 304 305 302 304 295 296 287 286
305 305 305 306 307 307 307 308 308 307 306 305 305 299 311 313 310 302 293 294 297 300 303 300 298 296 294 293 295 296 298 302 303 302 305 302 299 297 302 299 297 299 299 300 299 296 289
305 305 306 306 306 307 307 307 306 306 304 304 300 294 312 313 298 301 297 299 299 302 304 302 301 299 296 292 292 296 296 302 305 304 299 303 300 295 296 303 303 301 300 300 296 293 296
306 306 307 307 306 306 306 306 306 306 305 300 294 298 311 309 295 296 300 299 300 297 299 301 299 301 301 295 289 295 301 303 305 304 302 304 299 291 294 299 302 299 300 301 301 301 295
305 306 306 307 308 307 306 306 306 306 306 304 297 292 301 308 306 297 295 296 296 300 299 303 300 301 299 294 296 291 298 301 304 306 310 307 299 295 292 294 300 297 299 301 299 294 293
305 305 305 306 307 307 307 306 306 306 306 304 300 295 300 294 296 297 298 296 294 295 301 302 300 298 297 292 292 288 297 298 303 303 307 306 298 300 298 297 298 298 298 299 297 297 293
303 304 304 304 305 307 306 306 307 306 305 303 295 294 299 296 298 296 296 295 294 295 294 296 296 298 300 295 292 289 295 298 299 303 301 303 298 299 295 297 297 295 297 298 297 297 297
303 303 303 303 305 306 306 306 307 306 305 302 304 303 296 294 293 294 293 294 294 297 294 298 298 294 295 295 300 301 298 301 303 303 302 301 299 296 291 294 293 289 294 296 297 298 298
302 303 303 304 304 305 306 307 307 306 306 303 302 299 292 288 291 292 295 296 295 296 294 297 298 295 298 300 300 302 303 302 303 303 305 301 299 298 291 292 283 294 301 298 296 297 299
301 302 303 303 304 304 305 306 306 306 306 303 304 297 293 288 290 293 295 296 297 294 294 293 298 299 302 298 294 292 293 295 297 300 301 303 299 293 289 288 290 293 298 298 297 296 301
300 301 302 303 303 304 305 306 306 306 306 304 303 304 296 291 290 295 294 297 294 291 293 295 300 304 301 294 292 288 288 290 290 292 299 300 300 295 291 285 282 295 300 303 302 290 301
300 301 302 302 303 304 305 305 306 306 306 304 301 305 298 290 295 296 293 294 298 295 289 293 296 298 301 295 292 289 290 295 288 288 290 292 294 289 290 289 291 298 300 303 290 291 302
300 300 302 302 302 304 305 306 306 306 306 304 301 306 299 292 294 297 300 297 298 297 292 296 295 297 297 294 295 293 292 295 292 293 291 290 287 287 290 287 285 302 301 294 300 304 303
301 302 302 303 304 304 304 306 307 306 305 306 299 305 306 295 295 303 303 305 305 303 300 299 297 297 298 297 297 298 293 297 293 287 298 290 294 293 293 293 302 304 303 306 305 302 300
Wind_Speed
10 12 13 13 12 11 13 13 12 14 13 13 15 17 17 16 17 17 17 17 17 16 14 12 10 9 8 10 12 7 3 16 17 15 17 15 14 17 17 16 17 21 19 19 19 18 21
10 10 13 14 12 12 12 14 14 14 15 17 17 17 16 17 17 17 15 15 15 15 14 13 11 7 10 13 4 5 7 17 12 17 15 14 9 16 10 16 18 13 20 18 17 22 24
9 13 13 13 13 12 12 13 14 14 14 15 16 17 16 16 16 17 16 16 15 15 19 19 14 9 13 22 1 7 8 12 11 16 13 16 6 12 9 12 16 18 15 18 20 21 20
9 11 12 12 12 12 13 14 16 16 16 16 17 17 17 17 18 18 17 16 17 19 20 14 12 10 12 5 12 17 9 7 9 11 13 12 7 10 8 10 8 19 21 20 19 21 24
13 10 11 11 13 11 12 14 14 16 17 17 18 18 17 18 18 18 16 17 20 15 2 7 8 8 10 8 11 16 18 11 13 12 9 11 9 8 13 12 13 17 17 21 19 22 22
12 13 14 14 14 12 12 13 15 15 18 19 19 18 19 19 19 17 16 17 14 7 5 6 2 7 10 9 10 13 15 17 11 16 16 16 9 11 14 15 15 18 21 16 18 19 20
12 13 14 15 16 15 14 16 16 15 18 21 20 20 20 20 19 18 15 7 4 6 8 12 9 8 2 5 13 14 20 19 12 19 13 18 14 19 18 21 17 9 11 15 16 16 22
14 16 17 17 18 17 16 15 15 17 19 20 21 21 23 20 22 19 9 6 9 7 12 25 26 22 19 5 8 16 20 14 19 18 16 15 20 17 15 18 18 15 17 14 11 13 18
17 17 18 17 16 15 15 15 16 18 19 19 17 18 22 22 22 10 6 12 8 10 10 15 20 17 16 20 13 21 26 14 19 20 23 18 12 18 17 18 19 18 18 14 11 3 11
18 19 19 18 16 15 15 16 17 20 20 19 18 18 18 22 14 8 13 6 7 7 9 12 9 11 16 15 18 20 27 19 13 20 20 21 15 17 20 21 21 18 16 17 15 11 13
19 19 18 18 16 17 15 16 19 21 20 19 19 17 15 7 14 7 5 3 6 6 10 7 10 8 13 23 13 28 28 22 19 15 18 18 18 18 24 19 19 16 12 14 15 16 17
20 20 20 19 18 17 13 15 19 20 21 22 20 19 18 11 10 15 12 8 8 10 13 8 10 13 15 23 19 24 25 26 19 17 19 18 11 18 16 15 16 16 18 13 16 15 15
20 20 20 19 19 16 15 19 20 20 22 23 24 23 21 12 7 2 7 6 9 13 5 15 7 12 18 19 24 23 26 29 22 21 17 18 16 14 11 12 10 13 13 9 11 14 14
20 20 19 19 19 20 19 19 20 20 21 24 27 31 7 8 9 15 6 9 16 12 24 5 3 4 13 18 24 25 26 25 25 21 13 16 19 22 14 16 12 18 16 11 14 14 16
20 20 21 21 20 20 20 21 20 20 22 24 29 10 7 3 7 9 10 14 19 20 22 16 11 12 8 8 7 23 23 24 25 23 21 18 19 18 19 15 18 13 11 12 9 5 8
20 21 21 20 19 20 21 21 19 19 21 26 12 11 6 2 8 9 11 22 22 26 17 12 17 8 9 12 8 16 22 22 25 25 21 9 13 12 16 14 12 13 13 10 9 11 13
18 19 20 20 20 19 19 20 19 19 19 24 9 7 8 6 9 8 12 17 20 25 16 16 19 9 2 5 14 21 15 9 23 25 21 11 6 7 11 15 17 12 13 11 6 9 10
19 19 19 19 19 19 18 20 18 19 17 7 6 7 8 4 5 5 10 18 12 18 16 19 16 13 10 8 5 13 19 11 14 19 21 15 10 12 13 5 3 4 7 14 9 12 8
18 20 21 21 19 20 19 19 19 18 11 6 6 8 2 4 6 7 12 13 7 7 17 12 10 11 11 10 4 21 10 2 7 19 18 11 5 9 9 11 9 9 5 2 5 7 11
20 21 21 22 22 20 20 18 18 18 14 7 6 6 5 5 3 7 12 13 10 3 12 13 5 3 9 4 6 6 9 5 3 4 3 15 6 7 6 6 13 14 13 11 9 7 10
20 21 21 21 23 22 20 19 19 18 16 7 5 6 5 6 6 13 12 13 14 11 9 4 6 9 6 5 5 4 2 4 6 3 10 8 12 15 8 3 3 6 10 10 10 6 7
21 22 22 23 23 23 22 19 17 17 18 6 5 6 7 14 11 10 9 8 11 12 6 2 8 3 9 6 8 3 2 4 8 8 9 1 8 13 10 6 4 5 6 7 6 5 6
21 21 21 22 22 22 23 20 16 16 11 5 6 5 6 9 10 12 4 8 11 10 4 6 6 5 4 6 3 9 4 7 1 13 10 7 10 12 9 5 4 8 11 12 9 6 7
22 22 21 22 22 21 22 22 19 16 9 4 5 5 4 5 8 13 13 12 8 13 4 3 4 5 5 5 1 6 13 11 12 11 5 10 9 4 6 8 7 8 1 1 7 3 4
22 22 22 22 23 22 22 23 19 17 14 3 4 3 4 4 6 17 9 7 5 11 6 5 6 4 3 4 5 8 4 5 10 9 8 6 6 4 4 7 5 5 6 8 10 10 3
22 21 22 22 21 22 22 21 21 19 15 3 4 4 4 5 3 12 13 10 5 3 3 5 4 7 5 0 2 3 4 7 6 5 5 8 6 3 6 5 5 11 6 2 4 7 5
21 21 22 21 21 22 23 23 22 20 16 3 4 4 4 4 3 8 3 4 6 4 2 5 4 2 5 3 2 1 5 3 6 7 9 6 5 5 5 2 5 6 2 1 5 5 7
20 21 22 21 21 22 25 24 22 19 15 4 5 6 2 3 8 5 10 7 8 2 1 4 3 3 3 1 1 2 2 4 5 6 10 6 6 3 4 3 4 5 6 2 8 9 9
19 20 20 21 21 22 25 27 22 15 12 8 3 3 2 3 5 9 11 11 11 8 6 1 3 3 5 2 2 1 2 1 9 5 7 5 1 5 1 5 10 11 13 9 9 10 9
Wind_Direction
4 11 14 5 360 354 353 351 341 337 332 332 332 328 323 322 321 318 313 310 309 307 300 295 300 294 257 235 245 152 108 158 172 201 195 183 191 204 219 220 223 223 241 220 238 237 243
17 13 12 0 355 349 353 342 342 343 334 333 329 325 325 325 322 317 311 307 303 298 297 287 282 274 245 250 89 192 200 162 183 202 209 194 206 211 257 236 230 215 239 238 228 231 233
15 14 2 345 343 342 347 342 331 328 326 328 325 323 324 320 318 316 311 303 297 291 290 279 252 232 243 244 173 164 148 181 193 205 215 201 174 188 226 238 241 244 242 230 235 246 252
3 2 339 343 339 333 336 335 332 331 327 323 324 320 321 322 320 317 314 309 304 298 295 281 212 207 255 216 237 233 226 188 202 209 234 200 182 215 242 237 244 231 225 238 224 223 233
350 348 332 332 327 329 326 327 324 325 327 326 324 320 319 319 317 313 310 308 303 302 321 160 172 208 255 120 218 219 196 180 162 180 180 180 181 195 212 231 228 212 232 222 242 224 223
342 334 328 324 324 317 314 317 319 322 326 326 322 322 323 319 315 312 309 299 304 278 174 182 4 225 231 223 179 178 180 155 152 168 161 185 185 192 216 216 221 216 227 233 234 228 222
323 316 314 316 316 315 315 313 319 321 323 323 323 325 323 317 314 310 311 294 210 193 215 214 194 258 296 119 139 169 166 173 171 177 177 186 200 203 200 215 232 285 248 231 239 239 235
323 326 322 327 334 334 335 339 336 329 326 322 323 324 323 318 311 311 286 235 303 348 284 221 247 234 265 328 192 161 168 178 175 188 176 181 217 206 217 205 225 247 259 244 263 238 233
344 340 335 334 336 333 334 336 332 329 327 322 322 321 317 312 308 296 249 254 297 318 266 276 226 231 221 218 234 173 187 185 188 196 195 199 200 212 207 209 221 222 252 247 267 311 204
342 338 336 331 326 324 325 329 329 328 327 324 319 316 314 321 283 345 284 253 259 230 271 255 193 232 195 204 214 190 198 189 190 205 199 222 210 197 209 216 213 231 219 252 263 256 223
340 340 338 331 322 319 321 325 334 329 322 316 310 305 307 310 299 268 340 275 344 216 272 95 165 141 181 193 177 191 189 207 202 196 188 204 209 204 206 212 218 242 228 237 255 254 263
342 342 337 327 324 326 328 332 326 321 315 314 309 304 303 290 241 248 275 302 275 233 241 239 165 184 178 210 193 163 183 208 225 209 203 230 207 207 214 214 227 240 231 245 248 250 239
343 341 336 334 342 333 324 327 325 319 318 315 314 307 299 261 245 4 199 201 222 242 206 246 212 190 208 192 200 167 183 198 209 207 201 215 198 212 219 210 207 201 201 202 208 221 239
343 342 341 341 338 336 330 326 325 323 322 324 318 309 260 254 214 255 204 205 236 245 229 267 212 217 260 208 206 190 185 193 209 207 208 202 208 207 188 229 190 203 217 240 206 208 212
344 340 341 342 335 330 328 329 329 331 330 327 314 304 275 211 213 193 219 220 232 244 268 263 246 241 203 275 292 207 199 200 199 209 211 204 218 192 219 214 241 186 224 261 274 269 275
345 344 340 334 334 334 334 330 332 332 336 329 313 304 273 299 175 181 223 241 246 247 275 259 254 266 217 195 221 241 204 200 203 200 208 209 206 182 193 232 227 268 212 196 229 237 236
342 341 337 334 333 335 333 329 331 331 339 325 298 295 57 123 179 206 238 237 252 246 259 274 269 263 324 208 218 258 205 186 197 192 206 194 199 195 163 202 210 196 220 240 279 266 225
339 337 334 334 333 331 331 327 334 332 341 329 308 287 130 158 244 222 255 280 2 304 300 284 261 258 207 134 307 271 223 182 205 186 196 205 226 182 217 79 301 327 275 227 219 220 250
333 335 336 329 329 332 332 331 333 335 346 321 291 276 173 223 263 289 300 295 248 264 265 269 266 235 173 177 139 246 188 70 197 193 172 167 179 177 177 193 200 225 210 286 314 310 217
337 335 334 335 334 328 332 333 331 334 333 327 279 295 201 214 300 325 329 312 315 281 281 299 302 200 162 150 165 275 202 100 100 207 149 147 167 220 232 306 182 196 199 200 212 220 249
337 338 336 333 340 334 329 330 330 335 330 308 253 249 322 305 322 319 312 290 302 327 278 327 221 195 188 128 146 220 186 97 133 197 121 164 193 192 153 211 175 176 178 185 211 226 231
338 337 336 335 332 334 332 326 328 330 326 263 286 320 337 298 295 289 294 308 319 352 335 240 331 271 194 166 152 114 340 200 169 170 128 161 138 157 157 211 232 215 201 202 212 192 242
333 331 332 331 327 330 331 328 328 336 343 308 319 296 309 297 316 293 318 321 314 357 288 32 2 32 91 60 126 129 160 276 226 154 135 136 147 176 158 176 192 233 226 216 220 210 245
333 328 333 330 330 331 330 329 328 332 340 288 297 310 285 286 300 307 313 310 343 344 296 15 19 350 57 13 45 173 149 109 99 72 117 145 150 141 119 170 216 53 163 251 200 174 184
332 327 332 330 331 332 328 333 332 322 325 289 292 275 294 296 308 291 310 321 26 354 46 27 18 40 79 283 150 134 108 116 77 52 76 143 118 126 169 199 82 143 116 147 157 130 94
330 329 326 326 328 332 328 329 328 333 327 303 277 272 270 293 259 336 321 321 11 344 28 9 30 192 196 251 318 177 131 114 145 111 88 107 96 114 156 185 196 107 114 6 261 120 116
331 324 329 329 332 332 328 323 322 327 326 333 277 257 251 265 277 328 288 333 358 81 357 272 289 214 214 253 82 317 110 71 132 132 157 139 140 173 142 152 106 110 95 292 220 99 98
325 326 328 329 331 331 327 328 325 319 322 344 276 263 266 272 288 290 304 329 316 342 20 320 250 8 274 208 176 86 45 87 78 128 142 155 147 164 185 174 158 150 171 306 100 98 85
320 324 330 328 327 328 328 326 320 327 326 334 276 344 236 215 269 303 294 292 299 326 324 202 354 6 21 35 9 78 93 148 152 120 156 156 116 157 108 86 95 77 84 90 100 95 68